Weather History for Fayetteville, AR

Change the Weather History Date:

Wednesday, April 4, 2012

  Actual Average Record
Temperature  
Mean Temperature 62 °F 54 °F  
Max Temperature 71 °F 66 °F 85 °F (2001)
Min Temperature 52 °F 41 °F 22 °F (1987)
Degree Days  
Heating Degree Days 2 12  
Month to date heating degree days 49  
Since 1 July heating degree days 3878  
Cooling Degree Days 0 1  
Month to date cooling degree days 1  
Year to date cooling degree days 5  
Growing Degree Days 12 (Base 50)    
Moisture  
Dew Point 54 °F    
Average Humidity 79    
Maximum Humidity 100    
Minimum Humidity 56    
Precipitation  
Precipitation 0.00 in 0.13 in 0.72 in (1997)
Month to date precipitation 0.54  
Year to date precipitation 10.14  
Sea Level Pressure  
Sea Level Pressure 29.78 in    
Wind  
Wind Speed 5 mph (SW)    
Max Wind Speed 14 mph    
Max Gust Speed 17 mph    
Visibility 10 miles    
Events      
T = Trace of Precipitation, MM = Missing Value Source: NWS Daily Summary

Daily Weather History Graph

Daily Weather History Graph

Search for Another Location

Airport:

Trip Planner

Search our weather history database for the weather conditions in past years. The results will help you decide how hot, cold, wet, or windy it might be!

Date:

Astronomy

Apr. 04, 2012 Rise Set
Actual Time 6:57 AM CDT 7:41 PM CDT
Civil Twilight 6:32 AM CDT 8:07 PM CDT
Nautical Twilight 6:01 AM CDT 8:38 PM CDT
Astronomical Twilight 5:30 AM CDT 9:09 PM CDT
Moon 5:38 PM CDT (4/4) 5:16 AM CDT (4/4)
Length of Visible Light 13h 35m
Length of Day
12h 43m
Waxing Gibbous, 94% of the Moon is Illuminated
Apr 4
Waxing Gibbous
Apr 6
Full
Apr 13
Last Quarter
Apr 21
New
Apr 29
First Quarter

Hourly Weather History & Observations

Time (CDT) Temp. Dew Point Humidity Pressure Visibility Wind Dir Wind Speed Gust Speed Precip Events Conditions
12:53 AM 64.9 °F 51.1 °F 61% 29.76 in 10.0 mi West 5.8 mph - N/A   Clear
1:53 AM 61.0 °F 54.0 °F 78% 29.80 in 10.0 mi WSW 5.8 mph - N/A   Clear
2:53 AM 59.0 °F 55.0 °F 87% 29.80 in 10.0 mi Calm Calm - N/A   Scattered Clouds
3:53 AM 57.2 °F 55.4 °F 94% 29.82 in 10.0 mi East 3.5 mph - N/A   Clear
4:53 AM 55.9 °F 55.0 °F 97% 29.77 in 10.0 mi Calm Calm - N/A   Mostly Cloudy
5:53 AM 55.0 °F 54.0 °F 96% 29.76 in 10.0 mi SSW 3.5 mph - N/A   Scattered Clouds
6:53 AM 55.4 °F 55.4 °F 100% 29.80 in 10.0 mi South 4.6 mph - N/A   Overcast
7:39 AM 55.4 °F 55.4 °F 100% 29.80 in 9.0 mi Calm Calm - N/A   Mostly Cloudy
7:48 AM 57.2 °F 55.4 °F 94% 29.81 in 10.0 mi Calm Calm - N/A   Mostly Cloudy
7:53 AM 57.0 °F 55.9 °F 96% 29.78 in 10.0 mi Calm Calm - N/A   Mostly Cloudy
8:53 AM 61.0 °F 57.9 °F 90% 29.78 in 10.0 mi SSW 9.2 mph - N/A   Overcast
9:17 AM 60.8 °F 57.2 °F 88% 29.81 in 10.0 mi SSW 5.8 mph - N/A   Overcast
9:53 AM 61.0 °F 57.9 °F 90% 29.80 in 10.0 mi SSW 11.5 mph - N/A   Overcast
10:53 AM 64.0 °F 57.9 °F 80% 29.80 in 10.0 mi SW 9.2 mph - N/A   Overcast
11:33 AM 64.4 °F 57.2 °F 77% 29.83 in 10.0 mi SW 11.5 mph - N/A   Overcast
11:53 AM 64.9 °F 57.0 °F 75% 29.80 in 10.0 mi SW 8.1 mph - N/A   Mostly Cloudy
12:53 PM 70.0 °F 57.9 °F 65% 29.78 in 10.0 mi SSW 11.5 mph 17.3 mph N/A   Mostly Cloudy
1:53 PM 70.0 °F 57.0 °F 63% 29.78 in 10.0 mi WSW 10.4 mph - N/A   Mostly Cloudy
2:53 PM 69.1 °F 55.9 °F 63% 29.77 in 10.0 mi West 13.8 mph - N/A   Scattered Clouds
3:53 PM 69.1 °F 55.0 °F 61% 29.75 in 10.0 mi WSW 9.2 mph - N/A   Clear
4:53 PM 69.1 °F 54.0 °F 58% 29.73 in 10.0 mi WSW 10.4 mph - N/A   Clear
5:53 PM 68.0 °F 52.0 °F 56% 29.73 in 10.0 mi WSW 5.8 mph - N/A   Clear
6:53 PM 66.0 °F 50.0 °F 56% 29.74 in 10.0 mi SW 9.2 mph - N/A   Clear
7:53 PM 62.1 °F 48.0 °F 60% 29.75 in 10.0 mi WSW 5.8 mph - N/A   Clear
8:53 PM 60.1 °F 48.0 °F 64% 29.75 in 10.0 mi Calm Calm - N/A   Clear
9:53 PM 55.9 °F 51.1 °F 84% 29.76 in 10.0 mi Calm Calm - N/A   Clear
10:53 PM 55.0 °F 50.0 °F 83% 29.76 in 10.0 mi WSW 6.9 mph - N/A   Scattered Clouds
11:53 PM 52.0 °F 48.0 °F 86% 29.76 in 10.0 mi South 3.5 mph - N/A   Scattered Clouds